QPF
0.00 0.00 0.00 0.00 0.01 0.01 0.01 0.03 0.04 0.04 0.04 0.03 0.04 0.04 0.05 0.07 0.12 0.10 0.07 0.08 0.09 0.08 0.08 0.10 0.10 0.08 0.07 0.07 0.06 0.08 0.09 0.10 0.09 0.08 0.08 0.06 0.05 0.05 0.06 0.05 0.04 0.04 0.05
0.00 0.01 0.01 0.01 0.00 0.01 0.01 0.02 0.03 0.03 0.03 0.03 0.05 0.06 0.06 0.06 0.07 0.08 0.08 0.07 0.08 0.10 0.08 0.11 0.10 0.09 0.10 0.09 0.08 0.09 0.09 0.08 0.08 0.08 0.10 0.10 0.09 0.05 0.04 0.04 0.04 0.04 0.05
0.00 0.01 0.01 0.01 0.01 0.01 0.02 0.02 0.02 0.02 0.03 0.03 0.04 0.05 0.08 0.08 0.08 0.07 0.06 0.05 0.06 0.08 0.13 0.13 0.10 0.11 0.09 0.10 0.09 0.08 0.09 0.09 0.07 0.07 0.08 0.10 0.11 0.08 0.05 0.04 0.03 0.03 0.04
0.00 0.02 0.02 0.02 0.01 0.01 0.01 0.02 0.01 0.01 0.02 0.02 0.03 0.04 0.06 0.07 0.08 0.08 0.06 0.04 0.04 0.06 0.10 0.13 0.11 0.11 0.11 0.11 0.07 0.08 0.09 0.08 0.06 0.06 0.07 0.08 0.09 0.09 0.08 0.06 0.04 0.04 0.03
0.02 0.02 0.03 0.01 0.01 0.01 0.01 0.01 0.01 0.01 0.02 0.02 0.03 0.05 0.06 0.08 0.09 0.10 0.09 0.08 0.07 0.06 0.08 0.11 0.13 0.11 0.12 0.11 0.09 0.10 0.09 0.08 0.07 0.06 0.07 0.08 0.09 0.07 0.08 0.08 0.08 0.06 0.06
0.01 0.01 0.02 0.02 0.02 0.01 0.01 0.01 0.02 0.02 0.02 0.02 0.03 0.04 0.05 0.08 0.08 0.09 0.10 0.09 0.09 0.09 0.10 0.13 0.13 0.10 0.10 0.10 0.09 0.09 0.09 0.08 0.07 0.07 0.07 0.07 0.08 0.07 0.07 0.07 0.07 0.07 0.05
0.01 0.02 0.01 0.01 0.02 0.02 0.02 0.02 0.02 0.02 0.02 0.02 0.03 0.04 0.05 0.07 0.08 0.08 0.09 0.09 0.10 0.09 0.09 0.10 0.10 0.10 0.09 0.08 0.08 0.08 0.07 0.07 0.07 0.07 0.06 0.05 0.05 0.05 0.05 0.06 0.06 0.06 0.04
0.01 0.02 0.01 0.01 0.01 0.01 0.01 0.01 0.01 0.02 0.03 0.03 0.03 0.04 0.06 0.08 0.09 0.10 0.09 0.08 0.09 0.09 0.08 0.09 0.10 0.09 0.07 0.05 0.06 0.05 0.05 0.06 0.06 0.06 0.07 0.06 0.05 0.04 0.04 0.05 0.05 0.06 0.06
0.02 0.02 0.01 0.02 0.01 0.01 0.01 0.01 0.01 0.02 0.03 0.04 0.05 0.06 0.08 0.11 0.13 0.11 0.10 0.10 0.08 0.07 0.09 0.09 0.10 0.09 0.08 0.07 0.06 0.07 0.06 0.06 0.06 0.05 0.06 0.05 0.04 0.04 0.03 0.03 0.04 0.07 0.09
0.01 0.01 0.01 0.01 0.01 0.01 0.01 0.01 0.01 0.01 0.02 0.03 0.05 0.07 0.10 0.11 0.13 0.13 0.11 0.10 0.08 0.08 0.09 0.09 0.09 0.10 0.09 0.08 0.07 0.06 0.06 0.06 0.07 0.06 0.06 0.05 0.05 0.05 0.03 0.03 0.03 0.04 0.07
0.01 0.01 0.01 0.01 0.00 0.01 0.01 0.00 0.00 0.01 0.02 0.02 0.03 0.05 0.07 0.08 0.08 0.07 0.05 0.05 0.05 0.07 0.09 0.08 0.09 0.08 0.07 0.06 0.06 0.04 0.05 0.05 0.06 0.06 0.06 0.06 0.07 0.07 0.04 0.03 0.03 0.04 0.05
0.01 0.00 0.00 0.01 0.01 0.01 0.02 0.01 0.01 0.01 0.01 0.01 0.02 0.03 0.04 0.05 0.05 0.05 0.04 0.04 0.05 0.06 0.07 0.07 0.07 0.06 0.06 0.05 0.05 0.03 0.03 0.03 0.04 0.05 0.05 0.05 0.06 0.08 0.06 0.06 0.05 0.05 0.06
0.00 0.00 0.01 0.01 0.01 0.01 0.01 0.01 0.00 0.00 0.01 0.01 0.02 0.03 0.03 0.04 0.05 0.05 0.05 0.05 0.04 0.04 0.04 0.05 0.05 0.06 0.05 0.04 0.04 0.04 0.04 0.03 0.03 0.04 0.04 0.04 0.05 0.06 0.06 0.06 0.06 0.06 0.06
0.01 0.00 0.00 0.00 0.00 0.00 0.00 0.01 0.00 0.01 0.01 0.03 0.04 0.04 0.04 0.05 0.06 0.06 0.06 0.05 0.04 0.04 0.04 0.04 0.04 0.05 0.06 0.04 0.03 0.03 0.04 0.04 0.04 0.04 0.04 0.04 0.05 0.05 0.05 0.05 0.06 0.07 0.07
0.02 0.02 0.02 0.02 0.01 0.01 0.00 0.01 0.01 0.00 0.01 0.02 0.04 0.05 0.06 0.05 0.06 0.06 0.05 0.04 0.04 0.03 0.03 0.04 0.04 0.05 0.06 0.05 0.04 0.03 0.03 0.04 0.05 0.05 0.04 0.04 0.03 0.03 0.04 0.03 0.04 0.05 0.05
0.03 0.03 0.03 0.02 0.02 0.02 0.01 0.01 0.01 0.01 0.01 0.02 0.03 0.04 0.05 0.05 0.05 0.04 0.04 0.04 0.03 0.03 0.03 0.03 0.04 0.04 0.03 0.03 0.03 0.03 0.04 0.04 0.05 0.05 0.04 0.03 0.03 0.03 0.03 0.03 0.03 0.04 0.04
0.05 0.04 0.03 0.03 0.02 0.01 0.01 0.01 0.02 0.02 0.01 0.01 0.02 0.03 0.05 0.06 0.05 0.04 0.04 0.03 0.03 0.02 0.03 0.03 0.03 0.03 0.04 0.03 0.03 0.03 0.04 0.05 0.05 0.03 0.04 0.03 0.02 0.03 0.03 0.03 0.03 0.03 0.04
0.06 0.04 0.03 0.02 0.01 0.01 0.01 0.02 0.03 0.03 0.02 0.02 0.02 0.02 0.03 0.03 0.04 0.04 0.04 0.03 0.04 0.03 0.03 0.03 0.04 0.04 0.04 0.03 0.02 0.02 0.04 0.06 0.05 0.04 0.04 0.04 0.03 0.03 0.03 0.03 0.03 0.03 0.03
0.06 0.04 0.03 0.02 0.01 0.01 0.01 0.02 0.02 0.02 0.02 0.02 0.03 0.03 0.03 0.03 0.03 0.03 0.04 0.05 0.05 0.04 0.04 0.04 0.04 0.04 0.04 0.03 0.03 0.03 0.03 0.05 0.06 0.04 0.05 0.05 0.05 0.03 0.02 0.03 0.04 0.04 0.03
0.05 0.04 0.02 0.02 0.02 0.02 0.01 0.02 0.01 0.02 0.02 0.02 0.03 0.05 0.05 0.05 0.05 0.04 0.04 0.05 0.05 0.04 0.04 0.03 0.04 0.04 0.03 0.03 0.03 0.03 0.03 0.04 0.05 0.06 0.06 0.04 0.04 0.02 0.01 0.02 0.04 0.05 0.04
0.04 0.02 0.02 0.02 0.02 0.02 0.01 0.01 0.01 0.02 0.03 0.04 0.05 0.06 0.07 0.08 0.07 0.07 0.06 0.05 0.05 0.04 0.04 0.04 0.04 0.03 0.03 0.04 0.04 0.04 0.04 0.05 0.05 0.05 0.05 0.05 0.03 0.02 0.01 0.01 0.02 0.03 0.04
0.05 0.03 0.02 0.02 0.02 0.02 0.01 0.01 0.01 0.02 0.04 0.05 0.05 0.06 0.06 0.06 0.07 0.08 0.07 0.06 0.06 0.05 0.05 0.05 0.05 0.04 0.03 0.03 0.03 0.03 0.04 0.05 0.05 0.06 0.05 0.04 0.03 0.02 0.01 0.01 0.02 0.02 0.03
0.05 0.03 0.02 0.03 0.03 0.02 0.02 0.02 0.02 0.02 0.03 0.04 0.04 0.04 0.04 0.05 0.08 0.08 0.08 0.07 0.06 0.06 0.05 0.05 0.04 0.04 0.03 0.03 0.03 0.03 0.03 0.04 0.05 0.06 0.06 0.05 0.04 0.04 0.03 0.02 0.02 0.02 0.03
0.03 0.04 0.03 0.03 0.04 0.03 0.02 0.02 0.03 0.02 0.02 0.02 0.02 0.03 0.04 0.05 0.07 0.09 0.09 0.08 0.07 0.07 0.06 0.05 0.05 0.05 0.05 0.04 0.03 0.03 0.03 0.03 0.04 0.04 0.05 0.04 0.05 0.05 0.04 0.04 0.03 0.03 0.03
0.02 0.04 0.04 0.03 0.04 0.02 0.01 0.02 0.02 0.03 0.03 0.03 0.03 0.04 0.05 0.06 0.06 0.07 0.07 0.07 0.07 0.08 0.08 0.08 0.06 0.05 0.05 0.06 0.04 0.03 0.02 0.02 0.03 0.03 0.03 0.02 0.03 0.03 0.04 0.04 0.04 0.04 0.03
0.02 0.02 0.02 0.02 0.02 0.02 0.02 0.02 0.02 0.04 0.04 0.04 0.03 0.03 0.04 0.05 0.06 0.06 0.06 0.07 0.08 0.08 0.08 0.08 0.07 0.07 0.07 0.07 0.07 0.05 0.03 0.02 0.03 0.03 0.03 0.03 0.03 0.04 0.04 0.04 0.04 0.04 0.03
MSLP
999.16 999.96 1000.83 1001.66 1002.41 1003.03 1003.54 1003.97 1004.36 1004.77 1005.22 1005.70 1006.20 1006.66 1007.04 1007.28 1007.37 1007.33 1007.19 1007.03 1006.92 1006.94 1007.13 1007.52 1008.11 1008.85 1009.68 1010.56 1011.44 1012.28 1013.07 1013.83 1014.55 1015.27 1015.97 1016.67 1017.33 1017.94 1018.46 1018.89 1019.23 1019.48 1019.68
999.39 1000.29 1001.21 1002.06 1002.78 1003.34 1003.79 1004.15 1004.50 1004.90 1005.38 1005.92 1006.51 1007.08 1007.56 1007.90 1008.07 1008.07 1007.97 1007.82 1007.71 1007.72 1007.91 1008.30 1008.87 1009.58 1010.38 1011.20 1012.00 1012.75 1013.45 1014.10 1014.75 1015.40 1016.07 1016.76 1017.44 1018.08 1018.66 1019.14 1019.52 1019.80 1020.01
999.49 1000.48 1001.47 1002.36 1003.08 1003.63 1004.04 1004.36 1004.68 1005.06 1005.55 1006.13 1006.78 1007.43 1008.00 1008.43 1008.69 1008.77 1008.73 1008.64 1008.57 1008.61 1008.80 1009.18 1009.72 1010.38 1011.11 1011.84 1012.53 1013.17 1013.74 1014.29 1014.84 1015.42 1016.06 1016.73 1017.43 1018.12 1018.75 1019.29 1019.72 1020.04 1020.26
999.47 1000.52 1001.57 1002.51 1003.27 1003.84 1004.24 1004.55 1004.85 1005.22 1005.71 1006.31 1006.99 1007.69 1008.33 1008.85 1009.21 1009.40 1009.46 1009.47 1009.48 1009.57 1009.80 1010.18 1010.69 1011.29 1011.93 1012.54 1013.10 1013.60 1014.04 1014.46 1014.90 1015.41 1015.99 1016.64 1017.35 1018.06 1018.74 1019.32 1019.80 1020.16 1020.41
999.37 1000.44 1001.54 1002.53 1003.34 1003.95 1004.39 1004.71 1005.02 1005.38 1005.86 1006.45 1007.14 1007.87 1008.57 1009.17 1009.63 1009.95 1010.15 1010.28 1010.41 1010.60 1010.88 1011.28 1011.76 1012.30 1012.83 1013.32 1013.74 1014.09 1014.38 1014.67 1014.99 1015.40 1015.91 1016.52 1017.21 1017.93 1018.62 1019.25 1019.76 1020.15 1020.43
999.28 1000.33 1001.43 1002.46 1003.32 1003.99 1004.49 1004.85 1005.18 1005.54 1006.00 1006.58 1007.26 1007.99 1008.73 1009.40 1009.96 1010.41 1010.76 1011.05 1011.32 1011.62 1011.98 1012.40 1012.87 1013.35 1013.78 1014.15 1014.43 1014.63 1014.77 1014.92 1015.12 1015.42 1015.85 1016.39 1017.04 1017.74 1018.44 1019.07 1019.61 1020.03 1020.33
999.31 1000.27 1001.34 1002.37 1003.28 1004.01 1004.57 1004.99 1005.35 1005.73 1006.17 1006.72 1007.37 1008.09 1008.84 1009.56 1010.21 1010.79 1011.28 1011.72 1012.14 1012.56 1013.00 1013.46 1013.92 1014.35 1014.70 1014.96 1015.11 1015.17 1015.19 1015.21 1015.29 1015.49 1015.82 1016.29 1016.87 1017.53 1018.19 1018.82 1019.36 1019.80 1020.14
999.50 1000.34 1001.33 1002.34 1003.27 1004.05 1004.67 1005.15 1005.55 1005.94 1006.37 1006.89 1007.50 1008.19 1008.92 1009.67 1010.39 1011.06 1011.68 1012.26 1012.80 1013.33 1013.85 1014.35 1014.81 1015.19 1015.47 1015.64 1015.70 1015.66 1015.58 1015.50 1015.49 1015.59 1015.83 1016.21 1016.72 1017.32 1017.94 1018.54 1019.07 1019.52 1019.88
999.89 1000.57 1001.45 1002.40 1003.32 1004.13 1004.80 1005.33 1005.77 1006.17 1006.60 1007.08 1007.64 1008.29 1008.99 1009.74 1010.49 1011.23 1011.94 1012.61 1013.26 1013.87 1014.45 1014.97 1015.42 1015.78 1016.02 1016.13 1016.13 1016.03 1015.88 1015.75 1015.67 1015.70 1015.87 1016.18 1016.62 1017.14 1017.71 1018.27 1018.79 1019.24 1019.61
1000.43 1000.95 1001.69 1002.55 1003.43 1004.24 1004.93 1005.50 1005.97 1006.39 1006.81 1007.26 1007.78 1008.37 1009.04 1009.76 1010.52 1011.28 1012.03 1012.77 1013.47 1014.13 1014.74 1015.28 1015.73 1016.06 1016.28 1016.37 1016.34 1016.23 1016.07 1015.91 1015.82 1015.81 1015.94 1016.19 1016.56 1017.02 1017.53 1018.04 1018.54 1018.98 1019.37
1001.07 1001.43 1002.02 1002.77 1003.57 1004.34 1005.03 1005.62 1006.11 1006.54 1006.95 1007.38 1007.86 1008.41 1009.04 1009.72 1010.46 1011.22 1011.98 1012.73 1013.44 1014.12 1014.73 1015.26 1015.70 1016.03 1016.24 1016.34 1016.33 1016.24 1016.12 1015.99 1015.91 1015.91 1016.02 1016.24 1016.56 1016.96 1017.42 1017.89 1018.35 1018.78 1019.17
1001.73 1001.95 1002.40 1003.01 1003.70 1004.40 1005.05 1005.63 1006.13 1006.56 1006.97 1007.39 1007.85 1008.37 1008.96 1009.62 1010.32 1011.06 1011.81 1012.54 1013.25 1013.90 1014.49 1015.01 1015.43 1015.75 1015.97 1016.10 1016.13 1016.11 1016.04 1015.98 1015.96 1015.99 1016.11 1016.32 1016.61 1016.96 1017.37 1017.80 1018.22 1018.63 1019.02
1002.40 1002.48 1002.78 1003.24 1003.80 1004.39 1004.97 1005.51 1005.99 1006.42 1006.84 1007.26 1007.72 1008.23 1008.81 1009.44 1010.13 1010.84 1011.57 1012.27 1012.94 1013.56 1014.12 1014.60 1015.00 1015.32 1015.55 1015.71 1015.81 1015.86 1015.89 1015.91 1015.96 1016.05 1016.20 1016.41 1016.68 1017.00 1017.36 1017.75 1018.14 1018.52 1018.89
1003.05 1003.02 1003.16 1003.46 1003.86 1004.32 1004.80 1005.26 1005.70 1006.12 1006.54 1006.98 1007.45 1007.98 1008.57 1009.21 1009.89 1010.60 1011.30 1011.97 1012.61 1013.18 1013.70 1014.14 1014.51 1014.82 1015.07 1015.27 1015.43 1015.57 1015.68 1015.80 1015.92 1016.08 1016.26 1016.49 1016.75 1017.05 1017.38 1017.72 1018.07 1018.42 1018.77
1003.73 1003.58 1003.57 1003.69 1003.91 1004.21 1004.55 1004.91 1005.29 1005.69 1006.10 1006.56 1007.06 1007.63 1008.25 1008.92 1009.62 1010.33 1011.03 1011.68 1012.29 1012.83 1013.30 1013.70 1014.05 1014.35 1014.61 1014.84 1015.06 1015.26 1015.46 1015.65 1015.86 1016.07 1016.30 1016.54 1016.80 1017.08 1017.38 1017.68 1018.00 1018.32 1018.64
1004.43 1004.18 1004.01 1003.95 1003.98 1004.10 1004.29 1004.53 1004.83 1005.17 1005.58 1006.05 1006.59 1007.19 1007.86 1008.58 1009.32 1010.05 1010.75 1011.41 1011.99 1012.51 1012.94 1013.32 1013.64 1013.92 1014.19 1014.45 1014.70 1014.96 1015.22 1015.49 1015.75 1016.02 1016.28 1016.54 1016.81 1017.07 1017.34 1017.62 1017.91 1018.20 1018.49
1005.18 1004.82 1004.50 1004.26 1004.10 1004.04 1004.06 1004.16 1004.36 1004.64 1005.02 1005.49 1006.05 1006.69 1007.41 1008.17 1008.95 1009.72 1010.44 1011.11 1011.69 1012.19 1012.61 1012.96 1013.26 1013.54 1013.81 1014.08 1014.36 1014.66 1014.97 1015.29 1015.61 1015.91 1016.21 1016.49 1016.76 1017.02 1017.28 1017.54 1017.80 1018.07 1018.34
1005.91 1005.45 1005.01 1004.61 1004.28 1004.04 1003.90 1003.87 1003.95 1004.15 1004.47 1004.91 1005.47 1006.13 1006.87 1007.67 1008.48 1009.28 1010.03 1010.71 1011.30 1011.80 1012.21 1012.56 1012.86 1013.13 1013.41 1013.69 1014.00 1014.34 1014.69 1015.04 1015.40 1015.75 1016.07 1016.38 1016.66 1016.92 1017.18 1017.43 1017.68 1017.93 1018.18
1006.55 1006.02 1005.47 1004.95 1004.49 1004.10 1003.82 1003.66 1003.62 1003.73 1003.97 1004.36 1004.88 1005.52 1006.25 1007.05 1007.87 1008.68 1009.44 1010.13 1010.74 1011.25 1011.67 1012.03 1012.34 1012.63 1012.92 1013.23 1013.57 1013.94 1014.33 1014.73 1015.13 1015.51 1015.87 1016.21 1016.51 1016.79 1017.06 1017.31 1017.56 1017.80 1018.03
1007.00 1006.42 1005.82 1005.23 1004.68 1004.20 1003.81 1003.53 1003.39 1003.39 1003.54 1003.84 1004.28 1004.86 1005.54 1006.30 1007.10 1007.89 1008.65 1009.34 1009.95 1010.48 1010.93 1011.31 1011.65 1011.97 1012.30 1012.66 1013.04 1013.45 1013.89 1014.33 1014.78 1015.21 1015.61 1015.98 1016.32 1016.63 1016.91 1017.17 1017.42 1017.66 1017.89
1007.17 1006.60 1006.00 1005.40 1004.82 1004.29 1003.84 1003.49 1003.25 1003.14 1003.18 1003.37 1003.71 1004.19 1004.77 1005.45 1006.18 1006.92 1007.65 1008.33 1008.94 1009.48 1009.96 1010.38 1010.76 1011.14 1011.53 1011.94 1012.38 1012.85 1013.34 1013.85 1014.35 1014.83 1015.28 1015.70 1016.07 1016.41 1016.72 1017.01 1017.27 1017.50 1017.72
1007.05 1006.54 1006.00 1005.44 1004.90 1004.38 1003.91 1003.51 1003.20 1003.00 1002.93 1002.99 1003.19 1003.53 1003.99 1004.55 1005.18 1005.84 1006.51 1007.15 1007.75 1008.30 1008.80 1009.27 1009.72 1010.16 1010.62 1011.10 1011.61 1012.15 1012.71 1013.28 1013.84 1014.37 1014.88 1015.34 1015.76 1016.13 1016.47 1016.77 1017.04 1017.28 1017.49
1006.67 1006.26 1005.83 1005.38 1004.92 1004.46 1004.01 1003.60 1003.24 1002.97 1002.79 1002.72 1002.78 1002.97 1003.28 1003.69 1004.19 1004.75 1005.33 1005.92 1006.49 1007.04 1007.57 1008.08 1008.58 1009.09 1009.63 1010.18 1010.77 1011.38 1012.01 1012.64 1013.25 1013.84 1014.39 1014.89 1015.34 1015.75 1016.11 1016.43 1016.71 1016.95 1017.16
1006.14 1005.88 1005.59 1005.28 1004.94 1004.56 1004.17 1003.78 1003.40 1003.06 1002.79 1002.60 1002.52 1002.56 1002.71 1002.98 1003.34 1003.77 1004.26 1004.78 1005.31 1005.85 1006.38 1006.92 1007.48 1008.05 1008.64 1009.26 1009.91 1010.59 1011.27 1011.94 1012.60 1013.22 1013.80 1014.32 1014.80 1015.22 1015.60 1015.93 1016.22 1016.47 1016.68
1005.61 1005.51 1005.39 1005.22 1005.01 1004.74 1004.42 1004.06 1003.67 1003.29 1002.95 1002.66 1002.46 1002.36 1002.38 1002.50 1002.73 1003.04 1003.43 1003.87 1004.34 1004.85 1005.38 1005.93 1006.50 1007.11 1007.74 1008.41 1009.10 1009.80 1010.51 1011.21 1011.88 1012.51 1013.09 1013.62 1014.10 1014.53 1014.90 1015.24 1015.54 1015.80 1016.03
1005.25 1005.30 1005.33 1005.30 1005.20 1005.03 1004.77 1004.44 1004.07 1003.66 1003.27 1002.91 1002.62 1002.41 1002.31 1002.31 1002.43 1002.63 1002.92 1003.28 1003.69 1004.15 1004.65 1005.18 1005.75 1006.36 1007.00 1007.67 1008.36 1009.06 1009.76 1010.45 1011.10 1011.71 1012.27 1012.78 1013.24 1013.65 1014.02 1014.35 1014.65 1014.93 1015.18
Thickness
5800 5797 5795 5792 5787 5783 5779 5775 5770 5768 5766 5763 5760 5757 5756 5755 5755 5753 5751 5749 5747 5745 5743 5742 5741 5740 5737 5736 5735 5733 5732 5730 5730 5726 5723 5726 5729 5729 5729 5729 5729 5729 5728
5791 5789 5787 5784 5781 5777 5774 5771 5767 5764 5762 5760 5758 5756 5755 5753 5752 5751 5748 5746 5744 5743 5742 5739 5738 5737 5735 5733 5732 5731 5728 5728 5728 5723 5717 5713 5715 5722 5728 5727 5726 5727 5726
5786 5782 5780 5778 5776 5772 5769 5767 5763 5761 5758 5757 5756 5754 5751 5749 5747 5745 5743 5743 5741 5740 5739 5737 5736 5734 5733 5730 5729 5728 5726 5723 5724 5724 5718 5710 5706 5712 5719 5723 5724 5724 5723
5785 5779 5775 5772 5769 5767 5766 5763 5759 5757 5754 5753 5751 5747 5744 5741 5741 5741 5741 5739 5738 5736 5735 5734 5732 5731 5730 5728 5727 5727 5725 5722 5719 5721 5721 5719 5716 5710 5708 5714 5719 5720 5720
5780 5775 5771 5767 5765 5763 5760 5757 5755 5752 5750 5748 5746 5743 5741 5740 5739 5739 5737 5735 5734 5733 5732 5729 5728 5727 5726 5725 5725 5724 5723 5721 5719 5718 5717 5716 5715 5715 5708 5704 5709 5713 5716
5774 5770 5767 5763 5759 5758 5755 5751 5749 5747 5745 5743 5741 5739 5736 5735 5734 5732 5731 5730 5729 5728 5727 5725 5724 5723 5722 5722 5721 5721 5720 5719 5718 5717 5716 5713 5710 5709 5708 5705 5705 5706 5711
5767 5762 5758 5755 5752 5749 5748 5746 5742 5741 5740 5739 5736 5735 5733 5731 5729 5728 5727 5726 5724 5723 5723 5723 5720 5719 5719 5718 5718 5716 5715 5715 5714 5713 5713 5713 5712 5712 5710 5706 5704 5704 5707
5761 5756 5752 5749 5745 5743 5741 5739 5737 5735 5735 5733 5731 5730 5729 5727 5725 5724 5724 5723 5721 5720 5720 5719 5718 5716 5716 5715 5714 5712 5712 5711 5710 5710 5709 5709 5710 5710 5709 5706 5702 5698 5700
5753 5749 5746 5743 5741 5738 5737 5735 5732 5730 5729 5728 5726 5725 5724 5722 5721 5720 5719 5719 5719 5718 5716 5715 5714 5712 5711 5710 5709 5708 5707 5706 5706 5705 5705 5704 5706 5706 5706 5706 5704 5697 5693
5747 5743 5739 5737 5735 5734 5733 5730 5726 5724 5723 5722 5721 5721 5719 5718 5717 5716 5715 5714 5714 5715 5713 5711 5710 5708 5707 5706 5705 5703 5703 5701 5700 5700 5699 5700 5701 5701 5702 5702 5702 5700 5696
5740 5736 5733 5731 5729 5727 5725 5722 5720 5718 5717 5716 5715 5714 5713 5713 5712 5711 5711 5711 5710 5710 5709 5708 5706 5704 5703 5702 5701 5700 5699 5697 5696 5696 5695 5695 5696 5696 5697 5697 5697 5696 5695
5733 5731 5727 5724 5721 5719 5716 5713 5713 5712 5711 5710 5709 5708 5708 5707 5707 5706 5707 5706 5705 5705 5704 5704 5702 5700 5699 5697 5696 5695 5694 5693 5691 5691 5691 5690 5691 5691 5691 5692 5691 5691 5692
5724 5721 5718 5714 5712 5710 5708 5706 5705 5705 5705 5704 5703 5701 5701 5701 5701 5701 5701 5700 5700 5699 5699 5699 5697 5696 5694 5693 5692 5691 5690 5690 5688 5688 5686 5686 5686 5684 5685 5685 5686 5686 5688
5714 5711 5707 5705 5703 5701 5699 5698 5697 5698 5697 5696 5696 5695 5695 5695 5695 5695 5695 5695 5695 5694 5694 5694 5693 5692 5690 5688 5687 5687 5686 5685 5684 5684 5683 5682 5681 5680 5680 5680 5680 5681 5680
5704 5701 5697 5695 5694 5691 5689 5688 5687 5689 5689 5689 5688 5689 5690 5690 5690 5689 5689 5690 5690 5690 5689 5688 5688 5688 5686 5685 5683 5682 5681 5680 5679 5679 5679 5679 5678 5677 5676 5676 5675 5675 5674
5695 5694 5690 5687 5686 5684 5682 5681 5681 5682 5682 5682 5682 5683 5684 5685 5685 5685 5684 5684 5684 5684 5684 5683 5683 5682 5681 5679 5677 5676 5675 5674 5673 5673 5673 5674 5673 5673 5672 5671 5671 5670 5669
5688 5685 5683 5680 5679 5678 5677 5675 5676 5676 5675 5676 5677 5678 5678 5679 5680 5681 5680 5679 5679 5679 5678 5677 5677 5676 5674 5672 5671 5669 5669 5668 5668 5668 5668 5669 5670 5668 5667 5666 5666 5666 5666
5681 5678 5676 5675 5673 5672 5672 5670 5670 5670 5669 5670 5671 5673 5673 5674 5675 5675 5675 5674 5674 5673 5673 5672 5672 5670 5669 5666 5665 5664 5663 5663 5663 5664 5663 5663 5663 5664 5662 5661 5660 5661 5661
5675 5673 5671 5669 5667 5665 5665 5664 5663 5663 5662 5663 5665 5666 5668 5669 5670 5669 5670 5670 5669 5668 5668 5668 5667 5665 5663 5660 5659 5657 5658 5657 5657 5658 5658 5658 5657 5657 5656 5655 5654 5654 5655
5670 5668 5666 5664 5661 5659 5659 5656 5655 5656 5656 5658 5660 5661 5663 5664 5665 5665 5666 5666 5665 5664 5664 5664 5663 5661 5658 5655 5653 5651 5652 5651 5651 5652 5652 5651 5651 5649 5648 5648 5647 5646 5648
5663 5661 5659 5656 5654 5653 5651 5648 5648 5648 5651 5653 5655 5656 5658 5659 5661 5662 5662 5661 5661 5660 5659 5658 5657 5656 5654 5651 5648 5646 5646 5645 5645 5645 5646 5646 5644 5643 5642 5641 5641 5641 5642
5655 5655 5652 5649 5647 5646 5644 5641 5641 5643 5645 5647 5649 5651 5653 5655 5658 5656 5656 5656 5656 5654 5653 5653 5652 5651 5650 5647 5644 5642 5640 5639 5639 5640 5640 5639 5637 5636 5635 5635 5636 5635 5635
5649 5648 5645 5642 5640 5640 5638 5635 5636 5638 5639 5641 5643 5645 5647 5649 5651 5651 5651 5651 5650 5649 5649 5648 5647 5646 5645 5643 5640 5637 5635 5634 5633 5634 5633 5632 5631 5630 5629 5630 5630 5629 5629
5642 5641 5638 5635 5634 5634 5634 5633 5633 5634 5635 5635 5637 5640 5642 5644 5645 5646 5646 5645 5644 5643 5643 5642 5642 5641 5640 5638 5635 5632 5629 5627 5626 5625 5625 5624 5624 5624 5624 5624 5624 5624 5624
5637 5635 5633 5630 5629 5630 5629 5629 5630 5630 5630 5631 5633 5636 5638 5639 5639 5640 5640 5640 5638 5638 5637 5637 5637 5635 5633 5631 5628 5627 5626 5623 5621 5619 5619 5619 5619 5618 5618 5619 5620 5620 5619
5631 5629 5628 5626 5626 5625 5624 5625 5625 5626 5626 5627 5629 5631 5633 5633 5634 5634 5634 5633 5633 5631 5631 5630 5629 5629 5627 5625 5623 5621 5619 5617 5615 5613 5614 5614 5614 5614 5614 5614 5614 5614 5614